Location: Harbor View
(36.2448°N, 86.5797°W)
Time: 07:59:37
(UTC+00:00)

SL-4 R/B - Pass Details

Date: 29 October 2020
Orbit: 428 x 665 km, 51.6° (Epoch: 04 December)

Event Time Altitude Azimuth Distance (km) Brightness Sun altitude
Rises 23:53:38 0° 324° (NW) 2,454 5.7 -12.8°
Reaches altitude 10° 23:57:44 10° 10° (N) 1,636 4.3 -13.7°
Maximum altitude 23:58:13 10° 18° (NNE) 1,631 4.2 -13.8°
Drops below altitude 10° 23:58:42 10° 25° (NNE) 1,651 4.1 -13.9°
Enters shadow 23:58:51 10° 28° (NNE) 1,662 4.1 -13.9°
